[[{"header":{"parameterUnit":"m.s-1","parameterCategory":1,"la1":30.2991,"la2":30.254,"lo1":-89.0895,"lo2":-89.0444,"dy":0.0017,"dx":0.0017,"nx":28,"ny":28,"refTime":"2025-08-23T09:00:00:Z","depth":0,"parameterNumber":2,"parameterNumberName":"U-component_of_WINDS"},"data":[0,0,0,0,0,0,0,0,0,0,0,0,0,0,0,0,0,0,0,0,0,0,0,0,0,0,0,0,0,0,0,0,0,0,0,0,0,0,0,0,0,0,0,0,0,0,0,0,0,0,0,0,0,0,0,0,0,0,3.9624,3.9625,0,3.9711,3.9712,3.9713,3.9657,3.9654,3.9652,3.9649,3.9733,3.9738,3.9742,0,0,0,0,0,0,0,0,0,0,0,0,0,3.9401,3.9405,3.9624,3.9625,3.9626,3.9711,3.9712,3.9713,3.9657,3.9654,3.9651,3.9648,3.9732,3.9737,3.9743,0,0,0,0,0,0,0,0,0,0,0,0,0,3.9494,3.9407,3.9623,3.9608,3.9608,3.9711,3.9712,3.9714,3.9658,3.9654,3.965,3.9646,3.973,3.9737,3.9744,3.9865,0,0,3.9765,3.9768,0,0,0,0,0,0,0,0,3.9489,3.9502,3.9609,3.9609,3.9609,3.9669,3.9665,3.9764,3.9659,3.9639,3.9649,3.9644,3.9715,3.9723,3.9748,3.9869,3.9872,3.9766,3.977,3.9773,3.9775,0,0,0,0,0,0,0,3.9482,3.9498,3.9658,3.9611,3.9611,3.9595,3.9604,3.9683,3.9697,3.964,3.9636,3.9648,3.9714,3.9741,3.9749,3.9874,3.9765,3.9772,3.9776,3.9779,4.0095,4.0099,0,0,0,0,0,0,3.9478,3.9493,3.9655,3.9661,3.9538,3.9602,3.9612,3.9654,3.9696,3.9699,3.9651,3.9645,3.9731,3.9741,3.9752,3.9894,3.9773,3.9779,3.9783,4.0091,4.0096,4.0101,0,0,0,0,0,0,3.9473,3.9493,3.9652,3.9576,3.9595,3.961,3.9657,3.9657,3.9684,3.9705,3.9706,3.9676,3.9728,3.9742,3.9837,3.9896,3.9783,3.9789,4.0086,4.0093,4.0098,4.0181,0,0,0,0,0,0,3.9467,3.9492,3.954,3.9578,3.9599,3.9738,3.9661,3.9662,3.9697,3.969,3.9729,3.9731,3.9726,3.9827,3.9844,3.9904,3.9794,4.0081,4.0089,4.0096,4.0173,4.0189,4.0203,0,0,0,0,0,3.946,3.9559,3.9542,3.9562,3.966,3.9741,3.9753,3.9747,3.9703,3.9749,3.9762,3.973,3.9888,3.9837,3.9856,3.9918,4.0077,4.0087,4.0096,4.0166,4.0186,4.0203,0,0,0,0,0,0,3.9526,3.9564,3.9546,3.9661,3.9698,3.9731,3.979,3.9769,3.9818,3.9809,3.9797,3.9806,3.9905,3.9921,3.9864,4.0036,3.9975,3.9988,4.0022,4.0041,4.0056,4.0048,3.98,0,0,0,0,0,3.9555,3.962,3.9648,3.9746,3.9766,3.9776,3.9811,3.9803,3.984,3.9855,3.9875,3.9911,3.9968,4.0006,4.006,4.0176,4.0181,4.0228,4.0243,4.0255,4.0266,4.0325,4.0345,4.0132,4.0132,4.0131,0,0,3.9613,3.9642,3.9683,3.9761,3.9789,3.9853,3.9789,3.9861,3.9908,3.9865,3.9956,3.9972,4.0011,4.0116,4.0163,4.0133,4.0327,4.0267,4.0277,4.0281,4.0337,4.0357,4.0375,4.0138,4.0137,4.0136,0,0,3.9752,3.9782,3.9866,3.9896,3.9939,3.9945,3.9965,4.0002,4.001,4.0102,4.007,4.0125,4.0225,4.0253,4.028,4.0429,4.0401,4.0447,4.0525,4.0583,4.06,4.0615,4.0664,4.0683,4.0459,4.0459,4.0459,0,3.9818,3.9917,3.9911,3.9986,4.0019,3.9985,4.0068,4.0097,4.0155,4.0178,4.0144,4.0267,4.0291,4.04,4.0437,4.0462,4.0481,4.0442,4.0599,4.0613,4.0627,4.0674,4.0693,4.0464,4.0464,4.0463,4.0463,0,3.9995,4.0064,4.0126,4.0185,4.0226,4.0304,4.0307,4.0349,4.0337,4.0345,4.0436,4.0464,4.0522,4.0548,4.0537,4.0656,4.0635,4.06,4.0537,4.0653,4.0696,4.0715,4.0472,4.047,4.0468,4.0467,0,0,4.0178,4.0232,4.0254,4.0279,4.0325,4.0377,4.0452,4.051,4.0544,4.0586,4.0647,4.0732,4.0699,4.073,4.0722,4.0773,4.0885,4.0732,4.0732,4.0756,4.1013,4.1037,4.1058,4.0868,4.0871,4.0874,4.1009,0,4.0317,4.0451,4.0447,4.057,4.0631,4.06,4.0665,4.0698,4.0708,4.0759,4.0769,4.0828,4.0783,4.0801,4.085,4.0861,4.0936,4.0852,4.0921,4.0923,4.0909,4.1082,4.1108,4.1234,4.1027,4.103,4.1032,0,4.0497,4.0546,4.0675,4.071,4.0735,4.0795,4.0846,4.0897,4.0933,4.0936,4.0971,4.0954,4.1027,4.0965,4.1064,4.1007,4.1035,4.1045,4.1049,4.1053,4.0982,4.1087,4.1274,4.1292,4.1059,4.1057,4.1055,0,4.0613,4.0711,4.08,4.0823,4.0866,4.0908,4.0928,4.096,4.0995,4.1039,4.106,4.1113,4.1141,4.118,4.1177,4.1132,4.1276,4.1214,4.1278,4.1278,4.1307,4.1305,4.1498,4.1331,4.1331,4.133,4.133,0,4.0767,4.0847,4.0852,4.0907,4.0994,4.0989,4.1074,4.1089,4.1119,4.1174,4.115,4.1201,4.1195,4.1246,4.1244,4.1324,4.1338,4.134,4.1338,4.1341,4.134,4.1356,4.1346,4.1335,4.1334,4.1333,4.1332,0,4.091,4.0918,4.1013,4.1046,4.1056,4.1119,4.1146,4.1196,4.1204,4.1274,4.1289,4.13,4.1359,4.136,4.1428,4.1426,4.1523,4.1513,4.1511,4.1508,4.157,4.1563,4.1778,4.1804,4.1623,4.1625,4.1627,0,4.1007,4.1067,4.1108,4.1143,4.1166,4.1224,4.1259,4.1255,4.1292,4.1337,4.1381,4.1438,4.1483,4.1578,4.159,4.1641,4.1629,4.1701,4.1636,4.1636,4.1626,4.1621,4.1625,4.1713,4.1715,4.1716,4.1718,0,4.1176,4.1176,4.1229,4.1282,4.1325,4.1366,4.1405,4.1435,4.1435,4.1477,4.1537,4.1572,4.1641,4.1696,4.1745,4.1762,4.1739,4.1739,4.1755,4.1757,4.1752,4.1752,4.1542,4.1733,4.1731,4.173,4.1729,4.1729,4.1296,4.1348,4.1384,4.1442,4.147,4.1506,4.1555,4.1568,4.162,4.1676,4.167,4.1736,4.1768,4.1832,4.1853,4.1903,4.1878,4.1903,4.1909,4.1914,4.1919,4.1747,4.1913,4.1912,4.1912,4.1911,4.1911,0,4.1461,4.1483,4.1537,4.1591,4.1637,4.1613,4.1654,4.1692,4.1752,4.1785,4.183,4.1897,4.1951,4.1968,4.2019,4.2055,4.2045,4.2068,4.2064,4.2067,4.1941,4.192,4.2075,4.2075,4.2075,4.2075,4.2075,4.2075,4.1552,4.1637,4.1642,4.1739,4.1759,4.1825,4.185,4.1882,4.1908,4.1985,4.203,4.2041,4.2067,4.2119,4.2166,4.2169,4.2187,4.2214,4.2212,4.2093,4.2077,4.2061,4.2041,4.2219,4.2219,4.2334,4.2335,4.2336]},{"header":{"parameterUnit":"m.s-1","parameterCategory":1,"la1":30.2991,"la2":30.254,"lo1":-89.0895,"lo2":-89.0444,"dy":0.0017,"dx":0.0017,"nx":28,"ny":28,"refTime":"2025-08-23T09:00:00:Z","depth":0,"parameterNumber":3,"parameterNumberName":"V-component_of_WINDS"},"data":[0,0,0,0,0,0,0,0,0,0,0,0,0,0,0,0,0,0,0,0,0,0,0,0,0,0,0,0,0,0,0,0,0,0,0,0,0,0,0,0,0,0,0,0,0,0,0,0,0,0,0,0,0,0,0,0,0,0,2.0832,2.0835,0,2.105,2.1053,2.1055,2.1084,2.1082,2.108,2.1078,2.1306,2.1314,2.1321,0,0,0,0,0,0,0,0,0,0,0,0,0,2.0444,2.0451,2.0832,2.0835,2.0837,2.105,2.1053,2.1056,2.1084,2.1082,2.1079,2.1077,2.1303,2.1313,2.1322,0,0,0,0,0,0,0,0,0,0,0,0,0,2.0632,2.0453,2.0832,2.0877,2.0883,2.1049,2.1053,2.1057,2.1085,2.1082,2.1079,2.1076,2.13,2.1312,2.1324,2.146,0,0,2.136,2.1365,0,0,0,0,0,0,0,0,2.0621,2.0646,2.0868,2.0874,2.0882,2.1037,2.0999,2.1192,2.1086,2.1009,2.1078,2.1074,2.1219,2.1237,2.1285,2.1471,2.1481,2.1361,2.1369,2.1374,2.1377,0,0,0,0,0,0,0,2.0608,2.0637,2.0918,2.0871,2.088,2.0888,2.0911,2.1036,2.1129,2.1015,2.1018,2.1043,2.1222,2.1274,2.1291,2.1484,2.1361,2.1372,2.1379,2.1384,2.1791,2.1794,0,0,0,0,0,0,2.0586,2.0626,2.0912,2.0925,2.0741,2.0897,2.0924,2.099,2.1128,2.1145,2.1045,2.1043,2.1255,2.1277,2.1299,2.1468,2.1374,2.1385,2.1392,2.1787,2.1792,2.1796,0,0,0,0,0,0,2.0578,2.0612,2.0903,2.0776,2.0814,2.0907,2.0982,2.0996,2.1048,2.115,2.1167,2.1081,2.1253,2.1282,2.1419,2.1476,2.139,2.1401,2.1783,2.1789,2.1794,2.1806,0,0,0,0,0,0,2.0567,2.0608,2.0661,2.0777,2.0821,2.1019,2.0986,2.1003,2.1068,2.1067,2.1188,2.1205,2.1253,2.1401,2.1431,2.1491,2.1411,2.1778,2.1785,2.1792,2.1801,2.1811,2.182,0,0,0,0,0,2.0553,2.0657,2.0663,2.0698,2.0888,2.1022,2.1047,2.1099,2.1072,2.1126,2.1191,2.1201,2.1464,2.1415,2.1449,2.1513,2.1775,2.1783,2.1791,2.1797,2.1809,2.1819,0,0,0,0,0,0,2.0547,2.0673,2.0682,2.0826,2.0913,2.1026,2.1096,2.111,2.1207,2.1203,2.1264,2.1291,2.1425,2.1483,2.1426,2.1652,2.1617,2.1633,2.161,2.1622,2.1632,2.1616,2.1421,0,0,0,0,0,2.0562,2.0659,2.0764,2.0882,2.0925,2.1002,2.1063,2.1095,2.1188,2.1225,2.1301,2.1392,2.1495,2.1561,2.1662,2.1808,2.1835,2.1869,2.1879,2.1886,2.1899,2.198,2.1996,2.1822,2.1822,2.1822,0,0,2.0596,2.0676,2.0734,2.0883,2.0954,2.1053,2.1034,2.1141,2.1216,2.1242,2.1376,2.1434,2.1539,2.1681,2.1747,2.1733,2.1952,2.1896,2.1901,2.1911,2.199,2.2006,2.2021,2.1828,2.1827,2.1826,0,0,2.0707,2.0778,2.0883,2.0953,2.106,2.1111,2.1135,2.1247,2.1286,2.142,2.1442,2.1532,2.1708,2.1782,2.1843,2.1979,2.1992,2.201,2.206,2.2138,2.2152,2.2164,2.2213,2.223,2.2022,2.2022,2.2022,0,2.0736,2.0886,2.0936,2.1041,2.1106,2.1132,2.1239,2.1305,2.144,2.1485,2.1466,2.1686,2.1759,2.1918,2.1951,2.1999,2.203,2.1998,2.2145,2.2159,2.2171,2.2218,2.2236,2.2024,2.2024,2.2023,2.2023,0,2.0916,2.1019,2.1092,2.1218,2.1291,2.1397,2.1463,2.1531,2.1556,2.1608,2.1745,2.1832,2.195,2.199,2.2016,2.2153,2.214,2.2133,2.21,2.2188,2.2234,2.2252,2.2026,2.2026,2.2025,2.2025,0,0,2.1033,2.1183,2.1209,2.1266,2.1384,2.1466,2.1573,2.1686,2.1743,2.1834,2.1926,2.2073,2.2066,2.2134,2.2169,2.2237,2.2339,2.2221,2.2225,2.224,2.2494,2.25,2.252,2.2347,2.235,2.2353,2.2485,0,2.1159,2.1348,2.1395,2.1557,2.1654,2.1678,2.1771,2.1853,2.1905,2.1995,2.2052,2.2155,2.2138,2.2179,2.2248,2.2312,2.2391,2.2303,2.2433,2.2437,2.2407,2.2544,2.2551,2.2672,2.2503,2.2507,2.2509,0,2.1332,2.1424,2.1595,2.1699,2.1741,2.1824,2.1931,2.2016,2.211,2.2142,2.2217,2.2244,2.2356,2.2315,2.2471,2.241,2.2466,2.2505,2.2511,2.2526,2.2479,2.2564,2.2711,2.273,2.2537,2.2535,2.2533,0,2.1401,2.1568,2.1691,2.174,2.1864,2.1921,2.1975,2.2066,2.2131,2.2224,2.2267,2.2372,2.2431,2.2512,2.2567,2.2532,2.2718,2.2682,2.2749,2.2748,2.2789,2.2786,2.2948,2.2822,2.2822,2.2822,2.2821,0,2.1537,2.1641,2.1724,2.18,2.1917,2.1969,2.2084,2.2139,2.2219,2.2307,2.2334,2.2416,2.2483,2.2574,2.2618,2.274,2.2766,2.2796,2.2806,2.2794,2.279,2.2833,2.2826,2.2827,2.2826,2.2825,2.2824,0,2.1635,2.1694,2.1831,2.1935,2.1964,2.2046,2.2136,2.2211,2.2261,2.2372,2.2401,2.2482,2.259,2.2652,2.2789,2.2818,2.2954,2.296,2.2922,2.2927,2.2991,2.2984,2.3187,2.3217,2.307,2.3071,2.3072,0,2.1719,2.1799,2.1911,2.1971,2.2025,2.2122,2.2187,2.2241,2.2308,2.2419,2.2481,2.2591,2.2682,2.2854,2.2925,2.3029,2.3039,2.3103,2.3055,2.304,2.3041,2.3036,2.3044,2.3111,2.3113,2.3114,2.3115,0,2.1861,2.1886,2.1978,2.208,2.2157,2.224,2.2323,2.2371,2.2439,2.2512,2.2623,2.2693,2.2831,2.294,2.3049,2.3106,2.3123,2.3128,2.315,2.3139,2.3114,2.3129,2.2946,2.3124,2.3123,2.3123,2.3122,2.3122,2.1956,2.2027,2.2117,2.2218,2.2285,2.2362,2.2437,2.2496,2.2588,2.2704,2.273,2.2846,2.2936,2.3085,2.3144,2.3236,2.3225,2.3256,2.3264,2.3271,2.3273,2.3097,2.3256,2.3256,2.3256,2.3256,2.3256,0,2.21,2.2158,2.225,2.2364,2.2444,2.2449,2.254,2.2607,2.2708,2.279,2.2878,2.3004,2.3108,2.3186,2.3293,2.3352,2.3362,2.3378,2.3375,2.3388,2.3277,2.3248,2.3368,2.3368,2.3368,2.3368,2.3368,2.3368,2.2185,2.2306,2.2341,2.2496,2.2554,2.2666,2.2718,2.2788,2.2854,2.2992,2.3079,2.3128,2.3209,2.3321,2.3417,2.3437,2.3476,2.3492,2.3513,2.3408,2.3396,2.3385,2.3358,2.3499,2.3499,2.3617,2.3618,2.3619]}]]